Cuero, Texas, United States (77954)
Lat: 29.09N, Lon: 97.29W
Wx Zone: TXZ224
Local Info
Past Weather Observations for Today

NOTE: This archive is for the closest National Weather Service station to Cuero. Information may differ from the station used for current weather conditions.

Click here for Long-term Archive

Time Weather Temperature Dewpoint Humidity Pressure Winds Precip Visibility
22:51
Clear
61°F / 16°C 57°F / 14°C 88% 29.71 in
(1006 mb)
SW 6.9 mph
(SW 11 kph)
- 10SM
21:51
Clear
63°F / 17°C 57°F / 14°C 83% 29.71 in
(1006 mb)
SSE 8.1 mph
(SSE 13 kph)
- 10SM
20:51
Clear
64°F / 18°C 59°F / 15°C 83% 29.68 in
(1005 mb)
S 8.1 mph
(S 13 kph)
- 10SM
19:51
Clear
64°F / 18°C 61°F / 16°C 88% 29.65 in
(1004 mb)
SSE 8.1 mph
(SSE 13 kph)
- 10SM
18:51
Clear
66°F / 19°C 61°F / 16°C 83% 29.62 in
(1003 mb)
S 9.2 mph
(S 15 kph)
- 10SM
17:51
Clear
72°F / 22°C 55°F / 13°C 57% 29.59 in
(1002 mb)
SSE 8.1 mph
(SSE 13 kph)
- 10SM
16:51
Clear
81°F / 27°C 48°F / 9°C 32% 29.59 in
(1002 mb)
SW 8.1 mph
(SW 13 kph)
- 10SM
15:51
Clear
84°F / 29°C 46°F / 8°C 27% 29.56 in
(1001 mb)
SW 12.7 mph
(SW 20 kph)
- 10SM
14:51
Clear
84°F / 29°C 48°F / 9°C 29% 29.56 in
(1001 mb)
SW 16.1 mph
(SW 26 kph)
- 10SM
13:51
Clear
84°F / 29°C 46°F / 8°C 27% 29.59 in
(1002 mb)
SSW 12.7 mph
(SSW 20 kph)
- 10SM
12:51
Clear
81°F / 27°C 54°F / 12°C 39% 29.62 in
(1003 mb)
SSW 15 mph
(SSW 24 kph)
- 10SM
11:51
Clear
79°F / 26°C 55°F / 13°C 45% 29.68 in
(1005 mb)
SW 11.5 mph
(SW 19 kph)
- 10SM
10:51
Clear
73°F / 23°C 57°F / 14°C 57% 29.71 in
(1006 mb)
SW 13.8 mph
(SW 22 kph)
- 10SM
09:51
Clear
70°F / 21°C 57°F / 14°C 64% 29.71 in
(1006 mb)
SW 9.2 mph
(SW 15 kph)
- 10SM
08:51
Clear
64°F / 18°C 55°F / 13°C 73% 29.71 in
(1006 mb)
SW 12.7 mph
(SW 20 kph)
- 10SM
07:51
Clear
61°F / 16°C 54°F / 12°C 77% 29.71 in
(1006 mb)
SW 8.1 mph
(SW 13 kph)
- 10SM
06:51
Clear
57°F / 14°C 54°F / 12°C 88% 29.71 in
(1006 mb)
SW 6.9 mph
(SW 11 kph)
- 10SM
05:51
Clear
59°F / 15°C 54°F / 12°C 82% 29.71 in
(1006 mb)
SSW 9.2 mph
(SSW 15 kph)
- 10SM
04:51
Clear
59°F / 15°C 55°F / 13°C 88% 29.71 in
(1006 mb)
SSW 8.1 mph
(SSW 13 kph)
- 10SM
03:51
Clear
59°F / 15°C 55°F / 13°C 88% 29.71 in
(1006 mb)
SSW 4.6 mph
(SSW 7 kph)
- 10SM
02:51
Clear
61°F / 16°C 57°F / 14°C 88% 29.71 in
(1006 mb)
SSW 6.9 mph
(SSW 11 kph)
- 10SM
01:51
Clear
61°F / 16°C 57°F / 14°C 88% 29.71 in
(1006 mb)
Calm - 10SM
00:51
Clear
61°F / 16°C 57°F / 14°C 88% 29.71 in
(1006 mb)
NW 6.9 mph
(NW 11 kph)
- 10SM
Time Weather Temperature Dewpoint Humidity Pressure Winds Precip Visibility


Weather for websites

WeatherForYou.com, LLC is not responsible for any damages or problems caused by this service. Current weather conditions are obtained from the closest station including government and personal stations which may have varying degrees of accuracy. Weather forecasts are derived from the NOAA NDFD. Like all things, this site belongs to Jesus Christ... He just trusts me to maintain it. If you have any questions or comments email webmaster@weatherforyou.com

Copyright © 2014, WeatherForYou.com LLC. All rights reserved.